[[{"header":{"parameterUnit":"m.s-1","parameterCategory":1,"la1":30.2991,"la2":30.254,"lo1":-89.0895,"lo2":-89.0444,"dy":0.0017,"dx":0.0017,"nx":28,"ny":28,"refTime":"2025-05-29T09:00:00:Z","depth":0,"parameterNumber":2,"parameterNumberName":"U-component_of_WINDS"},"data":[0,0,0,0,0,0,0,0,0,0,0,0,0,0,0,0,0,0,0,0,0,0,0,0,0,0,0,0,0,0,0,0,0,0,0,0,0,0,0,0,0,0,0,0,0,0,0,0,0,0,0,0,0,0,0,0,0,0,-0.4072,-0.4073,0,-0.4156,-0.4157,-0.4158,-0.419,-0.419,-0.419,-0.4189,-0.4281,-0.4283,-0.4286,0,0,0,0,0,0,0,0,0,0,0,0,0,-0.3946,-0.3948,-0.4072,-0.4073,-0.4074,-0.4156,-0.4157,-0.4158,-0.419,-0.419,-0.4189,-0.4189,-0.428,-0.4283,-0.4286,0,0,0,0,0,0,0,0,0,0,0,0,0,-0.4012,-0.3949,-0.4072,-0.41,-0.4103,-0.4156,-0.4157,-0.4158,-0.419,-0.419,-0.4189,-0.4189,-0.4279,-0.4283,-0.4287,-0.4319,0,0,-0.4299,-0.4301,0,0,0,0,0,0,0,0,-0.4009,-0.4017,-0.4095,-0.4098,-0.4102,-0.4162,-0.4146,-0.4213,-0.419,-0.4157,-0.4189,-0.4189,-0.4242,-0.4249,-0.4266,-0.4323,-0.4327,-0.4299,-0.4302,-0.4303,-0.4305,0,0,0,0,0,0,0,-0.4004,-0.4014,-0.4106,-0.4096,-0.41,-0.411,-0.4119,-0.4159,-0.4201,-0.416,-0.4163,-0.4172,-0.4244,-0.4262,-0.4268,-0.4329,-0.4299,-0.4303,-0.4305,-0.4307,-0.4418,-0.4419,0,0,0,0,0,0,-0.3994,-0.401,-0.4103,-0.4108,-0.4053,-0.4113,-0.4123,-0.4143,-0.4201,-0.4209,-0.4172,-0.4173,-0.4255,-0.4263,-0.4271,-0.4314,-0.4303,-0.4307,-0.4309,-0.4418,-0.4418,-0.4419,0,0,0,0,0,0,-0.3991,-0.4002,-0.41,-0.406,-0.4073,-0.4115,-0.4138,-0.4145,-0.4163,-0.4209,-0.4218,-0.4182,-0.4255,-0.4266,-0.4307,-0.4317,-0.4309,-0.4313,-0.4417,-0.4418,-0.4419,-0.4398,0,0,0,0,0,0,-0.3987,-0.4001,-0.4012,-0.4059,-0.4075,-0.4132,-0.4139,-0.4147,-0.4169,-0.4171,-0.4221,-0.4229,-0.4256,-0.4301,-0.4311,-0.4323,-0.4316,-0.4416,-0.4417,-0.4418,-0.4398,-0.4398,-0.4398,0,0,0,0,0,-0.3983,-0.4004,-0.4013,-0.4024,-0.409,-0.4132,-0.4141,-0.4169,-0.417,-0.4183,-0.4213,-0.4228,-0.4314,-0.4305,-0.4316,-0.4329,-0.4416,-0.4417,-0.4418,-0.4398,-0.4398,-0.4398,0,0,0,0,0,0,-0.3959,-0.4011,-0.4021,-0.4058,-0.409,-0.4137,-0.4154,-0.4169,-0.4203,-0.4204,-0.4239,-0.425,-0.4289,-0.4313,-0.4301,-0.4364,-0.4366,-0.437,-0.4347,-0.4347,-0.4347,-0.4341,-0.4319,0,0,0,0,0,-0.3958,-0.3986,-0.4031,-0.4059,-0.4075,-0.4112,-0.4131,-0.415,-0.4186,-0.42,-0.4233,-0.4269,-0.4305,-0.4327,-0.4362,-0.4401,-0.4414,-0.4416,-0.4416,-0.4416,-0.4419,-0.4442,-0.4444,-0.4423,-0.4423,-0.4423,0,0,-0.3957,-0.3988,-0.4004,-0.4055,-0.4083,-0.4113,-0.4123,-0.4155,-0.4178,-0.4206,-0.4246,-0.4272,-0.4314,-0.4354,-0.4374,-0.4376,-0.4428,-0.4418,-0.4417,-0.4421,-0.4444,-0.4446,-0.4448,-0.4424,-0.4424,-0.4424,0,0,-0.3969,-0.3995,-0.4022,-0.4049,-0.4089,-0.4113,-0.412,-0.4165,-0.4182,-0.4223,-0.4244,-0.4273,-0.4333,-0.4363,-0.4385,-0.4409,-0.4424,-0.4419,-0.442,-0.4442,-0.4444,-0.4446,-0.4455,-0.4457,-0.4422,-0.4422,-0.4422,0,-0.3963,-0.4007,-0.4035,-0.4065,-0.4087,-0.4111,-0.4139,-0.4165,-0.4215,-0.4231,-0.4232,-0.4308,-0.4338,-0.4386,-0.4391,-0.4409,-0.4419,-0.4414,-0.4441,-0.4443,-0.4445,-0.4454,-0.4457,-0.4421,-0.4421,-0.4421,-0.4422,0,-0.3998,-0.4028,-0.4046,-0.4091,-0.4116,-0.4145,-0.4178,-0.42,-0.4216,-0.4241,-0.4283,-0.432,-0.4363,-0.4375,-0.4393,-0.4426,-0.4426,-0.4434,-0.4437,-0.4446,-0.4455,-0.4459,-0.442,-0.442,-0.4421,-0.4421,0,0,-0.3999,-0.4058,-0.4064,-0.4085,-0.4131,-0.4157,-0.4187,-0.4227,-0.4246,-0.428,-0.4308,-0.4358,-0.4365,-0.4391,-0.4412,-0.4431,-0.4448,-0.4437,-0.4438,-0.4438,-0.4488,-0.4482,-0.4485,-0.4458,-0.4459,-0.446,-0.4484,0,-0.4018,-0.4072,-0.4097,-0.414,-0.417,-0.4193,-0.422,-0.4252,-0.4276,-0.4306,-0.4334,-0.4368,-0.4375,-0.4391,-0.4411,-0.4441,-0.4458,-0.444,-0.4486,-0.4487,-0.4475,-0.449,-0.4484,-0.4505,-0.4488,-0.4488,-0.4489,0,-0.4048,-0.4079,-0.4125,-0.4167,-0.4181,-0.4204,-0.4243,-0.427,-0.4308,-0.4324,-0.4352,-0.4373,-0.4408,-0.4407,-0.4457,-0.4444,-0.4465,-0.4483,-0.4484,-0.449,-0.4489,-0.4497,-0.4513,-0.4516,-0.4495,-0.4494,-0.4494,0,-0.4044,-0.4099,-0.4133,-0.415,-0.42,-0.4216,-0.4239,-0.4275,-0.4298,-0.4333,-0.4348,-0.4387,-0.4408,-0.4439,-0.447,-0.4467,-0.4517,-0.4519,-0.4533,-0.4532,-0.4543,-0.4542,-0.4563,-0.4555,-0.4555,-0.4555,-0.4555,0,-0.4064,-0.4091,-0.4132,-0.4153,-0.4185,-0.4214,-0.4245,-0.427,-0.4302,-0.433,-0.4353,-0.4379,-0.4418,-0.4449,-0.4474,-0.4512,-0.4521,-0.4537,-0.4543,-0.4535,-0.4533,-0.4549,-0.4549,-0.4556,-0.4556,-0.4556,-0.4556,0,-0.4066,-0.4094,-0.4133,-0.4176,-0.4188,-0.421,-0.4248,-0.427,-0.4295,-0.433,-0.434,-0.4379,-0.4417,-0.4451,-0.4502,-0.4518,-0.4558,-0.4565,-0.4544,-0.4548,-0.456,-0.4558,-0.4593,-0.4599,-0.4586,-0.4586,-0.4586,0,-0.4076,-0.4098,-0.4143,-0.4161,-0.4182,-0.4213,-0.4235,-0.4266,-0.4289,-0.4333,-0.435,-0.4389,-0.4422,-0.4483,-0.4517,-0.4557,-0.4566,-0.4575,-0.4572,-0.4563,-0.4567,-0.4565,-0.4568,-0.4575,-0.4575,-0.4575,-0.4575,0,-0.4093,-0.4105,-0.4135,-0.417,-0.4196,-0.4226,-0.4256,-0.4271,-0.4308,-0.4332,-0.437,-0.4396,-0.4447,-0.4486,-0.4529,-0.4554,-0.4571,-0.4575,-0.4581,-0.4573,-0.456,-0.4568,-0.4545,-0.4575,-0.4575,-0.4575,-0.4575,-0.4575,-0.41,-0.412,-0.4154,-0.4187,-0.4213,-0.4241,-0.4264,-0.429,-0.4321,-0.4364,-0.438,-0.4419,-0.4457,-0.4516,-0.4541,-0.4574,-0.4577,-0.4584,-0.4587,-0.4588,-0.4587,-0.4554,-0.4582,-0.4582,-0.4582,-0.4582,-0.4582,0,-0.4118,-0.4141,-0.4171,-0.4211,-0.4238,-0.4249,-0.4283,-0.4305,-0.4338,-0.4371,-0.4402,-0.4446,-0.4484,-0.4521,-0.4562,-0.4581,-0.459,-0.4591,-0.459,-0.4596,-0.4582,-0.4573,-0.4583,-0.4583,-0.4583,-0.4583,-0.4583,-0.4583,-0.413,-0.4164,-0.4181,-0.4229,-0.4252,-0.4288,-0.4307,-0.4334,-0.436,-0.4407,-0.4438,-0.4461,-0.4496,-0.4539,-0.4575,-0.4585,-0.4599,-0.4598,-0.461,-0.4597,-0.4597,-0.4596,-0.4588,-0.4601,-0.4601,-0.4622,-0.4622,-0.4622]},{"header":{"parameterUnit":"m.s-1","parameterCategory":1,"la1":30.2991,"la2":30.254,"lo1":-89.0895,"lo2":-89.0444,"dy":0.0017,"dx":0.0017,"nx":28,"ny":28,"refTime":"2025-05-29T09:00:00:Z","depth":0,"parameterNumber":3,"parameterNumberName":"V-component_of_WINDS"},"data":[0,0,0,0,0,0,0,0,0,0,0,0,0,0,0,0,0,0,0,0,0,0,0,0,0,0,0,0,0,0,0,0,0,0,0,0,0,0,0,0,0,0,0,0,0,0,0,0,0,0,0,0,0,0,0,0,0,0,2.1669,2.1669,0,2.1732,2.1733,2.1733,2.1754,2.1754,2.1754,2.1754,2.1818,2.182,2.1822,0,0,0,0,0,0,0,0,0,0,0,0,0,2.1565,2.1567,2.1669,2.1669,2.167,2.1732,2.1733,2.1733,2.1754,2.1754,2.1754,2.1753,2.1818,2.182,2.1822,0,0,0,0,0,0,0,0,0,0,0,0,0,2.1617,2.1567,2.1669,2.1688,2.1691,2.1732,2.1733,2.1734,2.1755,2.1754,2.1754,2.1753,2.1817,2.182,2.1823,2.1849,0,0,2.1832,2.1833,0,0,0,0,0,0,0,0,2.1614,2.1621,2.1684,2.1687,2.169,2.1735,2.172,2.1772,2.1755,2.173,2.1754,2.1753,2.1791,2.1796,2.1809,2.1852,2.1855,2.1832,2.1834,2.1835,2.1836,0,0,0,0,0,0,0,2.1611,2.1618,2.1694,2.1685,2.1688,2.1693,2.17,2.173,2.1762,2.1732,2.1734,2.1741,2.1792,2.1806,2.181,2.1856,2.1832,2.1835,2.1836,2.1838,2.1922,2.1922,0,0,0,0,0,0,2.1604,2.1615,2.1692,2.1696,2.165,2.1695,2.1703,2.1721,2.1762,2.1768,2.1741,2.1742,2.1801,2.1807,2.1813,2.1845,2.1835,2.1838,2.184,2.1921,2.1922,2.1922,0,0,0,0,0,0,2.1601,2.161,2.1689,2.1656,2.1666,2.1698,2.1717,2.1722,2.1736,2.1769,2.1774,2.1749,2.1801,2.1809,2.1839,2.1847,2.1839,2.1842,2.1921,2.1921,2.1922,2.191,0,0,0,0,0,0,2.1598,2.1609,2.162,2.1656,2.1668,2.1715,2.1718,2.1724,2.1741,2.1742,2.1778,2.1783,2.1801,2.1835,2.1842,2.1851,2.1844,2.192,2.1921,2.1922,2.191,2.191,2.191,0,0,0,0,0,2.1595,2.1615,2.1621,2.163,2.1682,2.1716,2.1722,2.1743,2.1741,2.1752,2.1773,2.1782,2.1845,2.1838,2.1846,2.1856,2.192,2.1921,2.1922,2.191,2.191,2.191,0,0,0,0,0,0,2.158,2.162,2.1627,2.1659,2.1684,2.1719,2.1733,2.1743,2.1768,2.1768,2.1792,2.18,2.1828,2.1846,2.1837,2.1883,2.1883,2.1886,2.1871,2.1871,2.1872,2.1867,2.1847,0,0,0,0,0,2.158,2.1604,2.1638,2.1663,2.1675,2.1702,2.1717,2.173,2.1757,2.1767,2.179,2.1816,2.1841,2.1857,2.1882,2.1912,2.192,2.1923,2.1924,2.1924,2.1926,2.1941,2.1943,2.1926,2.1926,2.1925,0,0,2.1581,2.1606,2.162,2.1661,2.1681,2.1705,2.171,2.1736,2.1753,2.1771,2.1801,2.1819,2.1848,2.1878,2.1893,2.1893,2.1932,2.1925,2.1925,2.1927,2.1942,2.1944,2.1945,2.1926,2.1926,2.1926,0,0,2.1595,2.1617,2.164,2.166,2.1691,2.1708,2.1713,2.1747,2.1759,2.1789,2.1803,2.1824,2.1867,2.1887,2.1903,2.1922,2.1932,2.193,2.1932,2.1947,2.1948,2.1949,2.1955,2.1957,2.1932,2.1932,2.1932,0,2.1593,2.163,2.165,2.1674,2.1691,2.1708,2.173,2.1749,2.1786,2.1797,2.1797,2.1851,2.1872,2.1906,2.191,2.1923,2.1929,2.1926,2.1946,2.1948,2.1949,2.1955,2.1957,2.1932,2.1932,2.1932,2.1932,0,2.1624,2.1649,2.1664,2.1699,2.1717,2.1741,2.1764,2.178,2.1791,2.1808,2.1838,2.1864,2.1894,2.1903,2.1914,2.1938,2.1937,2.1941,2.1942,2.195,2.1956,2.1958,2.1931,2.1931,2.1931,2.1931,0,0,2.1632,2.1677,2.1682,2.1697,2.1731,2.1751,2.1774,2.1803,2.1815,2.184,2.186,2.1895,2.1899,2.1917,2.193,2.1943,2.1955,2.1946,2.1947,2.1946,2.1981,2.1978,2.198,2.1961,2.1962,2.1962,2.1979,0,2.165,2.1692,2.171,2.1744,2.1767,2.1782,2.1802,2.1824,2.1841,2.1862,2.1879,2.1904,2.1907,2.1918,2.1931,2.1951,2.1963,2.195,2.1979,2.198,2.1971,2.1983,2.198,2.1994,2.1981,2.1982,2.1982,0,2.1677,2.1701,2.1736,2.1766,2.1776,2.1794,2.1821,2.1841,2.1867,2.1877,2.1896,2.1909,2.1933,2.1931,2.1964,2.1955,2.1968,2.1979,2.198,2.1984,2.1981,2.1986,2.1999,2.2001,2.1986,2.1986,2.1985,0,2.1677,2.1718,2.1745,2.1757,2.1793,2.1805,2.182,2.1846,2.1861,2.1885,2.1895,2.1921,2.1935,2.1955,2.1973,2.1971,2.2004,2.2004,2.2013,2.2013,2.202,2.2019,2.2034,2.2028,2.2028,2.2028,2.2028,0,2.1695,2.1716,2.1745,2.1761,2.1785,2.1805,2.1828,2.1844,2.1866,2.1885,2.19,2.1917,2.1942,2.1962,2.1977,2.2001,2.2008,2.2016,2.202,2.2015,2.2014,2.2024,2.2023,2.2029,2.2029,2.2029,2.2029,0,2.1699,2.172,2.1749,2.178,2.1788,2.1804,2.1831,2.1846,2.1863,2.1886,2.1893,2.1919,2.1943,2.1964,2.1997,2.2007,2.2031,2.2036,2.2023,2.2025,2.2032,2.2031,2.2054,2.2058,2.2049,2.2049,2.205,0,2.1709,2.1725,2.1757,2.1771,2.1786,2.1808,2.1824,2.1844,2.186,2.1889,2.1901,2.1926,2.1948,2.1986,2.2008,2.2032,2.2037,2.2043,2.2041,2.2035,2.2036,2.2035,2.2036,2.2044,2.2044,2.2044,2.2044,0,2.1723,2.1732,2.1754,2.178,2.1798,2.1819,2.184,2.185,2.1874,2.1891,2.1916,2.1932,2.1965,2.199,2.2016,2.2032,2.2041,2.2044,2.2047,2.2042,2.2033,2.2037,2.2022,2.2044,2.2044,2.2044,2.2044,2.2044,2.173,2.1745,2.1769,2.1793,2.1811,2.183,2.1846,2.1864,2.1885,2.1913,2.1924,2.1949,2.1973,2.2009,2.2024,2.2044,2.2046,2.205,2.2052,2.2052,2.2051,2.203,2.2049,2.2049,2.2049,2.2049,2.2049,0,2.1745,2.1761,2.1782,2.1811,2.183,2.1837,2.186,2.1875,2.1897,2.1918,2.1939,2.1967,2.199,2.2013,2.2038,2.2049,2.2054,2.2055,2.2054,2.2057,2.2049,2.2043,2.205,2.205,2.205,2.205,2.205,2.205,2.1754,2.1779,2.1791,2.1824,2.184,2.1865,2.1878,2.1895,2.1912,2.1942,2.1962,2.1976,2.1998,2.2024,2.2046,2.2052,2.206,2.2059,2.2067,2.2058,2.2058,2.2058,2.2052,2.2061,2.2061,2.2073,2.2073,2.2073]}]]